Weather History for Santiago, Dominican Republic

Change the Weather History Date:

Saturday, April 20, 2013

  Actual Average Record
Temperature  
Mean Temperature 78 °F -  
Max Temperature 91 °F 89 °F 91 °F (1997)
Min Temperature 66 °F 69 °F 64 °F (2012)
Cooling Degree Days 14    
Growing Degree Days 28 (Base 50)    
Moisture  
Dew Point 70 °F    
Average Humidity 79    
Maximum Humidity 100    
Minimum Humidity 34    
Precipitation  
Precipitation 0.00 in 0.18 in - ()
Sea Level Pressure  
Sea Level Pressure 30.03 in    
Wind  
Wind Speed 8 mph ()    
Max Wind Speed 21 mph    
Max Gust Speed -    
Visibility 6.1 miles    
Events Thunderstorm    
Averages and records for this station are not official NWS values.
T = Trace of Precipitation, MM = Missing Value Source: Averaged Metar Reports

Daily Weather History Graph

Daily Weather History Graph

Search for Another Location

Airport:

Trip Planner

Search our weather history database for the weather conditions in past years. The results will help you decide how hot, cold, wet, or windy it might be!

Date:

Astronomy

Apr. 20, 2013 Rise Set
Actual Time 6:21 AM AST 7:01 PM AST
Civil Twilight 5:58 AM AST 7:24 PM AST
Nautical Twilight 5:32 AM AST 7:50 PM AST
Astronomical Twilight 5:05 AM AST 8:17 PM AST
Moon 2:22 PM AST (4/20) 2:24 AM AST (4/20)
Length of Visible Light 13h 25m
Length of Day
12h 40m
Waxing Gibbous, 71% of the Moon is Illuminated
Apr 20
Waxing Gibbous
Apr 25
Full
May 2
Last Quarter
May 9
New
May 18
First Quarter

Hourly Weather History & Observations

Time (AST) Temp. Heat Index Dew Point Humidity Pressure Visibility Wind Dir Wind Speed Gust Speed Precip Events Conditions
12:00 AM 73.4 °F - 73.4 °F 100% 30.09 in 6.2 mi SE 5.8 mph - N/A   Partly Cloudy
1:00 AM 73.4 °F - 73.4 °F 100% 30.06 in 6.2 mi SSE 4.6 mph - N/A   Partly Cloudy
2:00 AM 69.8 °F - 69.8 °F 100% 30.04 in 6.2 mi East 6.9 mph - N/A   Partly Cloudy
3:00 AM 69.8 °F - 69.8 °F 100% 30.04 in 6.2 mi East 6.9 mph - N/A   Partly Cloudy
4:00 AM 69.8 °F - 69.8 °F 100% 30.04 in 6.2 mi SE 4.6 mph - N/A   Partly Cloudy
5:00 AM 69.8 °F - 69.8 °F 100% 30.04 in 6.2 mi ESE 4.6 mph - N/A   Partly Cloudy
6:00 AM 68.0 °F - 68.0 °F 100% 30.04 in 6.2 mi Calm Calm - N/A   Partly Cloudy
7:00 AM 68.0 °F - 68.0 °F 100% 30.04 in 6.2 mi Calm Calm - N/A   Partly Cloudy
8:00 AM 69 °F - 67 °F 93% 30.07 in 6 mi ESE 6.7 mph - -   Haze
8:00 AM 69.8 °F - 68.0 °F 94% 30.06 in 6.2 mi ESE 6.9 mph - N/A   Mostly Cloudy
9:00 AM 80.6 °F 84.6 °F 71.6 °F 74% 30.09 in 6.2 mi ESE 9.2 mph - N/A   Scattered Clouds
10:00 AM 80.6 °F 84.6 °F 71.6 °F 74% 30.09 in 6.2 mi SE 11.5 mph - N/A   Scattered Clouds
11:00 AM 82 °F - 71 °F 61% 30.09 in 6 mi SE 13.4 mph - -   Haze
11:00 AM 84.2 °F 89.6 °F 71.6 °F 66% 30.09 in 6.2 mi SE 13.8 mph - N/A   Scattered Clouds
12:00 PM 84.2 °F 87.3 °F 68.0 °F 58% 30.04 in 6.2 mi SE 9.2 mph - N/A   Scattered Clouds
1:00 PM 87.8 °F 90.4 °F 66.2 °F 49% 30.01 in 6.2 mi SE 13.8 mph - N/A   Partly Cloudy
2:00 PM 88 °F - 64 °F 34% 29.98 in 6 mi SE 20.1 mph - -   Haze
2:00 PM 87.8 °F 89.4 °F 64.4 °F 46% 29.98 in 6.2 mi SE 20.7 mph - N/A   Partly Cloudy
3:00 PM 89.6 °F 92.2 °F 66.2 °F 46% 29.95 in 6.2 mi SE 20.7 mph - N/A   Partly Cloudy
4:00 PM 87.8 °F 90.4 °F 66.2 °F 49% 29.95 in 6.2 mi SE 13.8 mph - N/A   Partly Cloudy
5:00 PM 85 °F - 71 °F 55% 29.94 in 6 mi ESE 17.9 mph - -   Haze
5:00 PM 86.0 °F 91.8 °F 71.6 °F 62% 29.92 in 6.2 mi ESE 18.4 mph - N/A   Partly Cloudy
6:00 PM 82.4 °F 87.2 °F 71.6 °F 70% 29.95 in 6.2 mi East 20.7 mph - N/A   Scattered Clouds
7:00 PM 77.0 °F - 73.4 °F 89% 29.98 in 6.2 mi ESE 13.8 mph - N/A   Mostly Cloudy
8:00 PM 76 °F - 70 °F 76% 30.01 in 5 mi ESE 11.2 mph - -   Unknown
8:00 PM 77.0 °F - 69.8 °F 78% 30.01 in 5.0 mi ESE 11.5 mph - N/A Thunderstorm Light Thunderstorm
9:00 PM 77.0 °F - 73.4 °F 89% 30.04 in 6.2 mi SE 11.5 mph - N/A Thunderstorm Light Thunderstorm
10:00 PM 73.4 °F - 73.4 °F 100% 30.06 in 6.2 mi ESE 6.9 mph - N/A   Overcast
11:00 PM 72 °F - 72 °F 99% 30.09 in 6 mi East 6.7 mph - -   Haze
11:00 PM 71.6 °F - 71.6 °F 100% 30.09 in 6.2 mi East 6.9 mph - N/A   Overcast